"Pseudo-MPEC" for P112flU

Created 2020 Jul 11 9:07:07 UT using Find_Orb

Click here for an explanation of pseudo-MPECs

 
 Astrometry: 
     P112flU  C2020 06 28b+Pq'[Ni4tl(g9f\JlR%eo/v\7s]0/9Lniwu%%90AstrometryvAF51
     P112flU  C2020 06 28#b#MTV-sKpoa-Cxq,8x[uO`UmT/redacted;WPP[8-bG=I@B?j)'F51
     P112flU  C2020 06 283\xsNvsclick/Lp'oJjT@;lhere'XmE'4forgG$explanationKNF51
     P112flU ^C2020 06 29.44180620 24 18.705-32 27 18.27   ~6TJ7 21.96GVNEOCP568
     P112flU ^C2020 06 29.44298520 24 18.682-32 27 16.83   ~6TJ7 21.87GVNEOCP568
     P112flU ^C2020 06 29.44416220 24 18.659-32 27 15.40   ~6TJ7 21.94GVNEOCP568

Station data:
(568) Mauna Kea  (N19.826116 W155.472200)  US/Hawaii.
(F51) Pan-STARRS 1, Haleakala  (N20.707235 W156.255910)  US/Hawaii.
   Observers N. Primak, A. Schultz, S. Watters, J. Thiel, T. Goggia. Measurer
   PS1 Science Consortium. 1.8-m Ritchey-Chrétien + CCD.

Orbital elements:  P112flU
   Perihelion 2020 Jul 30.258960 +/- 47.7 TT =  6:12:54 (JD 2459060.758960)
Epoch 2020 Jun 29.0 TT = JDT 2459029.5   Earth MOID: 0.5157   Ju: 0.6309
M 354.31603900 +/- 14               (J2000 ecliptic)          AutoNEOCP
n   0.18183461 +/- 0.17             Peri.    1.79440 +/- 49
a   3.08568560 +/- 1.93             Node   302.97133 +/- 6
e   0.5037794 +/- 0.223             Incl.   15.79672 +/- 5.6
P   5.42                   H 21.7   G  0.15   U 11.6  SR
q 1.53118054 +/- 0.304    Q 4.64019067 +/- 52.1
From 6 observations 2020 June 28-29 (22.8 hr); mean residual 0".09
Residuals in arcseconds: 
200628 F51  .19+  .08-    200628 F51  .04-  .15+    200629 568  .00   .00     
200628 F51  .15-  .07-    200629 568  .01+  .00     200629 568  .01-  .01-    

Ephemerides (geocentric):
Date (UTC) HH   RA              Dec         delta   r     elong  mag " sig PA
---- -- -- --  -------------   -----------  ------ ------ -----  --- ---- ---
2020 07 11 09  20 19 14.113   -27 46 55.76  .53615 1.5425 166.1 21.9 3776  75
2020 07 11 10  20 19 12.586   -27 45 50.54  .53604 1.5424 166.1 21.9 3809  75
2020 07 11 11  20 19 11.056   -27 44 45.27  .53592 1.5424 166.2 21.9 3843  75
2020 07 11 12  20 19 09.523   -27 43 39.97  .53581 1.5423 166.2 21.9 3876  75
2020 07 11 13  20 19 07.989   -27 42 34.63  .53569 1.5423 166.3 21.9 3910  75
2020 07 11 14  20 19 06.451   -27 41 29.25  .53558 1.5422 166.3 21.9 3944  75
2020 07 11 15  20 19 04.911   -27 40 23.82  .53547 1.5422 166.4 21.9 3978  75
2020 07 11 16  20 19 03.369   -27 39 18.36  .53535 1.5421 166.4 21.9 4012  75
2020 07 11 17  20 19 01.824   -27 38 12.86  .53524 1.5421 166.5 21.9 4047  75
2020 07 11 18  20 19 00.277   -27 37 07.31  .53513 1.5420 166.5 21.8 4082  75
2020 07 11 19  20 18 58.728   -27 36 01.73  .53502 1.5420 166.5 21.8 4117  75
2020 07 11 20  20 18 57.176   -27 34 56.10  .53490 1.5419 166.6 21.8 4152  75
2020 07 11 21  20 18 55.621   -27 33 50.44  .53479 1.5419 166.6 21.8 4187  75
2020 07 11 22  20 18 54.064   -27 32 44.74  .53468 1.5418 166.7 21.8 4223  75
2020 07 11 23  20 18 52.505   -27 31 38.99  .53457 1.5418 166.7 21.8 4259  75
2020 07 12 00  20 18 50.943   -27 30 33.21  .53446 1.5417 166.8 21.8 4295  75
2020 07 12 01  20 18 49.379   -27 29 27.38  .53435 1.5417 166.8 21.8 4332  75
2020 07 12 02  20 18 47.813   -27 28 21.52  .53424 1.5416 166.9 21.8 4369  75
2020 07 12 03  20 18 46.244   -27 27 15.62  .53413 1.5416 166.9 21.8 4405  75
2020 07 12 04  20 18 44.673   -27 26 09.67  .53402 1.5415 166.9 21.8 4443  75
2020 07 12 05  20 18 43.099   -27 25 03.69  .53391 1.5415 167.0 21.8 4480  75
2020 07 12 06  20 18 41.524   -27 23 57.67  .53380 1.5414 167.0 21.8 4518  75
2020 07 12 07  20 18 39.946   -27 22 51.61  .53369 1.5414 167.1 21.8 4556  75
2020 07 12 08  20 18 38.365   -27 21 45.51  .53359 1.5413 167.1 21.8 4594  75
2020 07 12 09  20 18 36.782   -27 20 39.37  .53348 1.5413 167.2 21.8 4632  75
2020 07 12 10  20 18 35.197   -27 19 33.19  .53337 1.5412 167.2 21.8 4671  75
2020 07 12 11  20 18 33.610   -27 18 26.98  .53326 1.5412 167.3 21.8 4710  75
2020 07 12 12  20 18 32.020   -27 17 20.72  .53316 1.5412 167.3 21.8 4749  75
2020 07 12 13  20 18 30.428   -27 16 14.42  .53305 1.5411 167.3 21.8 4789  75
2020 07 12 14  20 18 28.834   -27 15 08.09  .53295 1.5411 167.4 21.8 4828  75
2020 07 12 15  20 18 27.238   -27 14 01.72  .53284 1.5410 167.4 21.8 4868  75
2020 07 12 16  20 18 25.639   -27 12 55.31  .53273 1.5410 167.5 21.8 4909  75
2020 07 12 17  20 18 24.038   -27 11 48.86  .53263 1.5409 167.5 21.8 4949  75
2020 07 12 18  20 18 22.435   -27 10 42.37  .53252 1.5409 167.6 21.8 4990  75
2020 07 12 19  20 18 20.830   -27 09 35.84  .53242 1.5408 167.6 21.8 5031  75
2020 07 12 20  20 18 19.222   -27 08 29.27  .53232 1.5408 167.7 21.8 5072  75
2020 07 12 21  20 18 17.612   -27 07 22.67  .53221 1.5407 167.7 21.8 5114  75
2020 07 12 22  20 18 16.000   -27 06 16.03  .53211 1.5407 167.7 21.8 5156  75
2020 07 12 23  20 18 14.386   -27 05 09.35  .53201 1.5406 167.8 21.8 5198  75
2020 07 13 00  20 18 12.770   -27 04 02.63  .53190 1.5406 167.8 21.8 5240  75
2020 07 13 01  20 18 11.151   -27 02 55.88  .53180 1.5406 167.9 21.8 5283  75
2020 07 13 02  20 18 09.531   -27 01 49.08  .53170 1.5405 167.9 21.8 5326  75
2020 07 13 03  20 18 07.908   -27 00 42.25  .53160 1.5405 168.0 21.8 5369  75
2020 07 13 04  20 18 06.283   -26 59 35.38  .53150 1.5404 168.0 21.8 5413  75
2020 07 13 05  20 18 04.656   -26 58 28.47  .53140 1.5404 168.1 21.8 5457  75
2020 07 13 06  20 18 03.027   -26 57 21.53  .53129 1.5403 168.1 21.8 5501  75
2020 07 13 07  20 18 01.396   -26 56 14.55  .53119 1.5403 168.1 21.8 5545  75
2020 07 13 08  20 17 59.763   -26 55 07.53  .53109 1.5402 168.2 21.8 5590  75